Track EGS (AJISAI) now! 10-day predictions EGS (AJISAI) is classified as:
1 16908U 86061A 25134.97874139 -.00000088 00000-0 64920-4 0 9990 2 16908 50.0097 291.8741 0011170 246.0880 207.9625 12.44511903430803